Baton Rouge, LA

12:06 AM CST on December 11, 2017 (GMT -0600)
Baton Rouge Metro-Ryan

Weather History for KBTR - May, 2013

Change the Weather History Date:

Sunday, May 26, 2013

  Actual Average Record
Temperature  
Mean Temperature 76 °F 78 °F  
Max Temperature 86 °F 88 °F 98 °F (1921)
Min Temperature 66 °F 68 °F 47 °F (1979)
Degree Days  
Heating Degree Days 0 0  
Month to date heating degree days 30 0  
Since 1 July heating degree days 1551 1553  
Cooling Degree Days 11 13  
Month to date cooling degree days 199 266  
Year to date cooling degree days 356 497  
Growing Degree Days 25 (Base 50)    
Moisture  
Dew Point 65 °F    
Average Humidity 74    
Maximum Humidity 100    
Minimum Humidity 47    
Precipitation  
Precipitation 0.00 in 0.17 in 2.26 in (1919)
Month to date precipitation 6.83 4.05  
Year to date precipitation 37.98 23.68  
Snow  
Snow 0.00 in - - ()
Month to date snowfall 0.0  
Since 1 July snowfall 0.0  
Snow Depth 0.00 in    
Sea Level Pressure  
Sea Level Pressure 30.13 in    
Wind  
Wind Speed 5 mph (East)    
Max Wind Speed 13 mph    
Max Gust Speed 16 mph    
Visibility 10 miles    
Events      
T = Trace of Precipitation, MM = Missing Value Source: NWS Daily Summary

Daily Weather History Graph

Daily Weather History Graph

Search for Another Location

Airport or City:

Trip Planner

Search our weather history database for the weather conditions in past years. The results will help you decide how hot, cold, wet, or windy it might be!

Date:

Astronomy

May. 26, 2013 Rise Set
Actual Time 6:04 AM CDT 7:59 PM CDT
Civil Twilight 5:37 AM CDT 8:26 PM CDT
Nautical Twilight 5:04 AM CDT 8:58 PM CDT
Astronomical Twilight 4:30 AM CDT 9:33 PM CDT
Moon 9:48 PM CDT (5/26) 7:33 AM CDT (5/26)
Length of Visible Light 14h 48m
Length of Day
13h 54m
Waning Gibbous, 96% of the Moon is Illuminated
May 26
Waning Gibbous
May 31
Last Quarter
Jun 8
New
Jun 16
First Quarter
Jun 23
Full

Hourly Weather History & Observations

Time (CDT) Temp. Heat Index Dew Point Humidity Pressure Visibility Wind Dir Wind Speed Gust Speed Precip Events Conditions
12:53 AM 70.0 °F - 66.9 °F 90% 30.14 in 10.0 mi Calm Calm - N/A   Clear
1:53 AM 70.0 °F - 66.9 °F 90% 30.13 in 10.0 mi Calm Calm - N/A   Clear
2:53 AM 70.0 °F - 66.9 °F 90% 30.13 in 10.0 mi Calm Calm - N/A   Clear
3:53 AM 68.0 °F - 66.0 °F 93% 30.13 in 10.0 mi NE 3.5 mph - N/A   Clear
4:53 AM 68.0 °F - 66.0 °F 93% 30.14 in 10.0 mi Calm Calm - N/A   Clear
5:53 AM 66.9 °F - 66.0 °F 97% 30.14 in 10.0 mi ENE 4.6 mph - N/A   Clear
6:53 AM 68.0 °F - 66.0 °F 93% 30.16 in 10.0 mi ENE 4.6 mph - N/A   Clear
7:53 AM 70.0 °F - 66.9 °F 90% 30.16 in 10.0 mi East 5.8 mph - N/A   Clear
8:53 AM 73.0 °F - 68.0 °F 84% 30.17 in 10.0 mi ENE 5.8 mph - N/A   Clear
9:53 AM 77.0 °F - 66.9 °F 71% 30.17 in 10.0 mi ESE 5.8 mph - N/A   Clear
10:53 AM 80.1 °F 82.1 °F 66.0 °F 62% 30.18 in 10.0 mi East 8.1 mph - N/A   Clear
11:53 AM 82.9 °F 85.0 °F 66.0 °F 56% 30.17 in 10.0 mi ENE 5.8 mph - N/A   Clear
12:53 PM 82.9 °F 83.3 °F 61.0 °F 47% 30.16 in 10.0 mi SE 3.5 mph - N/A   Scattered Clouds
1:53 PM 84.0 °F 84.9 °F 63.0 °F 49% 30.14 in 10.0 mi ENE 4.6 mph - N/A   Scattered Clouds
2:53 PM 84.9 °F 86.6 °F 64.9 °F 51% 30.12 in 10.0 mi East 6.9 mph - N/A   Partly Cloudy
3:53 PM 82.9 °F 85.0 °F 66.0 °F 56% 30.12 in 10.0 mi ENE 6.9 mph - N/A   Mostly Cloudy
4:53 PM 82.0 °F 84.5 °F 66.9 °F 60% 30.11 in 10.0 mi East 9.2 mph - N/A   Overcast
5:53 PM 81.0 °F 83.0 °F 66.0 °F 60% 30.10 in 10.0 mi ESE 10.4 mph - N/A   Scattered Clouds
6:53 PM 79.0 °F - 64.0 °F 60% 30.10 in 10.0 mi ESE 6.9 mph - N/A   Scattered Clouds
7:53 PM 78.1 °F - 64.0 °F 62% 30.10 in 10.0 mi East 5.8 mph - N/A   Mostly Cloudy
8:53 PM 75.9 °F - 64.0 °F 67% 30.10 in 10.0 mi ESE 5.8 mph - N/A   Scattered Clouds
9:53 PM 73.9 °F - 63.0 °F 68% 30.12 in 10.0 mi ESE 5.8 mph - N/A   Clear
10:53 PM 73.0 °F - 63.0 °F 71% 30.12 in 10.0 mi SE 5.8 mph - N/A   Clear
11:53 PM 73.0 °F - 64.0 °F 73% 30.12 in 10.0 mi SSE 3.5 mph - N/A   Clear